Wetterdaten: Montag, 01.11.2010
Datum Zeit Temp. A. Feuchte A. Luftdruck Regen Wind Richtung Richtung Sonnenschein UV Solar Windben
01.11.2010 00:00 5,3 C 88 % 1005,4 hPa 0,0 mm 0,0 km/h (0 Bft) N 0 0 min 0 UV-I 0 W/m 0,0 km/h (0 Bft)
01.11.2010 00:10 5,4 C 89 % 1005,4 hPa 0,0 mm 0,0 km/h (0 Bft) N 0 0 min 0 UV-I 0 W/m 0,0 km/h (0 Bft)
01.11.2010 00:20 5,5 C 89 % 1005,4 hPa 0,0 mm 0,0 km/h (0 Bft) N 0 0 min 0 UV-I 0 W/m 0,0 km/h (0 Bft)
01.11.2010 00:30 5,6 C 90 % 1005,3 hPa 0,0 mm 0,0 km/h (0 Bft) N 0 0 min 0 UV-I 0 W/m 0,0 km/h (0 Bft)
01.11.2010 00:40 5,8 C 90 % 1005,2 hPa 0,0 mm 0,0 km/h (0 Bft) O 90 0 min 0 UV-I 0 W/m 1,6 km/h (1 Bft)
01.11.2010 00:50 5,9 C 90 % 1005,1 hPa 0,0 mm 0,0 km/h (0 Bft) O 90 0 min 0 UV-I 0 W/m 1,6 km/h (1 Bft)
01.11.2010 01:00 6,1 C 90 % 1004,7 hPa 0,0 mm 0,0 km/h (0 Bft) N 0 0 min 0 UV-I 0 W/m 0,0 km/h (0 Bft)
01.11.2010 01:10 6,2 C 90 % 1004,5 hPa 0,0 mm 0,0 km/h (0 Bft) O 90 0 min 0 UV-I 0 W/m 3,2 km/h (1 Bft)
01.11.2010 01:20 6,3 C 90 % 1004,5 hPa 0,0 mm 0,0 km/h (0 Bft) O 90 0 min 0 UV-I 0 W/m 3,2 km/h (1 Bft)
01.11.2010 01:30 6,4 C 90 % 1004,5 hPa 0,0 mm 0,0 km/h (0 Bft) N 0 0 min 0 UV-I 0 W/m 0,0 km/h (0 Bft)
01.11.2010 01:40 6,4 C 90 % 1004,5 hPa 0,0 mm 0,0 km/h (0 Bft) N 0 0 min 0 UV-I 0 W/m 0,0 km/h (0 Bft)
01.11.2010 01:50 6,5 C 90 % 1004,8 hPa 0,0 mm 0,0 km/h (0 Bft) N 0 0 min 0 UV-I 0 W/m 0,0 km/h (0 Bft)
01.11.2010 02:00 6,6 C 91 % 1004,9 hPa 0,0 mm 0,0 km/h (0 Bft) O 90 0 min 0 UV-I 0 W/m 4,8 km/h (1 Bft)
01.11.2010 02:10 6,7 C 91 % 1005,0 hPa 0,0 mm 0,0 km/h (0 Bft) O 90 0 min 0 UV-I 0 W/m 4,8 km/h (1 Bft)
01.11.2010 02:20 6,8 C 91 % 1005,0 hPa 0,0 mm 0,0 km/h (0 Bft) O 90 0 min 0 UV-I 0 W/m 1,6 km/h (1 Bft)
01.11.2010 02:30 6,8 C 91 % 1005,0 hPa 0,0 mm 0,0 km/h (0 Bft) N 0 0 min 0 UV-I 0 W/m 0,0 km/h (0 Bft)
01.11.2010 02:40 6,9 C 91 % 1005,0 hPa 0,0 mm 0,0 km/h (0 Bft) N 0 0 min 0 UV-I 0 W/m 0,0 km/h (0 Bft)
01.11.2010 02:50 6,9 C 91 % 1005,2 hPa 0,0 mm 0,0 km/h (0 Bft) N 0 0 min 0 UV-I 0 W/m 0,0 km/h (0 Bft)
01.11.2010 03:00 6,9 C 91 % 1005,2 hPa 0,0 mm 0,0 km/h (0 Bft) N 0 0 min 0 UV-I 0 W/m 0,0 km/h (0 Bft)
01.11.2010 03:10 6,9 C 91 % 1005,2 hPa 0,0 mm 0,0 km/h (0 Bft) N 0 0 min 0 UV-I 0 W/m 0,0 km/h (0 Bft)
01.11.2010 03:20 6,9 C 91 % 1005,2 hPa 0,0 mm 0,0 km/h (0 Bft) N 0 0 min 0 UV-I 0 W/m 0,0 km/h (0 Bft)
01.11.2010 03:30 7,0 C 91 % 1005,3 hPa 0,0 mm 0,0 km/h (0 Bft) N 0 0 min 0 UV-I 0 W/m 0,0 km/h (0 Bft)
01.11.2010 03:40 7,0 C 91 % 1005,3 hPa 0,0 mm 0,0 km/h (0 Bft) N 0 0 min 0 UV-I 0 W/m 0,0 km/h (0 Bft)
01.11.2010 03:50 7,0 C 91 % 1005,5 hPa 0,0 mm 0,0 km/h (0 Bft) N 0 0 min 0 UV-I 0 W/m 0,0 km/h (0 Bft)
01.11.2010 04:00 7,0 C 91 % 1005,5 hPa 0,0 mm 0,0 km/h (0 Bft) O 90 0 min 0 UV-I 0 W/m 1,6 km/h (1 Bft)
01.11.2010 04:10 7,0 C 91 % 1005,5 hPa 0,0 mm 0,0 km/h (0 Bft) N 0 0 min 0 UV-I 0 W/m 0,0 km/h (0 Bft)
01.11.2010 04:20 7,0 C 91 % 1005,6 hPa 0,0 mm 0,0 km/h (0 Bft) N 0 0 min 0 UV-I 0 W/m 0,0 km/h (0 Bft)
01.11.2010 04:30 7,0 C 91 % 1005,5 hPa 0,0 mm 0,0 km/h (0 Bft) N 0 0 min 0 UV-I 0 W/m 0,0 km/h (0 Bft)
01.11.2010 04:40 7,0 C 91 % 1005,6 hPa 0,0 mm 0,0 km/h (0 Bft) N 0 0 min 0 UV-I 0 W/m 0,0 km/h (0 Bft)
01.11.2010 04:50 7,0 C 91 % 1005,8 hPa 0,0 mm 0,0 km/h (0 Bft) N 0 0 min 0 UV-I 0 W/m 0,0 km/h (0 Bft)
01.11.2010 05:00 7,0 C 91 % 1006,0 hPa 0,0 mm 0,0 km/h (0 Bft) N 0 0 min 0 UV-I 0 W/m 0,0 km/h (0 Bft)
01.11.2010 05:10 7,1 C 91 % 1006,0 hPa 0,0 mm 0,0 km/h (0 Bft) N 0 0 min 0 UV-I 0 W/m 0,0 km/h (0 Bft)
01.11.2010 05:20 7,1 C 91 % 1006,1 hPa 0,0 mm 0,0 km/h (0 Bft) O 90 0 min 0 UV-I 0 W/m 3,2 km/h (1 Bft)
01.11.2010 05:30 7,1 C 91 % 1006,2 hPa 0,0 mm 0,0 km/h (0 Bft) O 90 0 min 0 UV-I 0 W/m 1,6 km/h (1 Bft)
01.11.2010 05:40 7,1 C 91 % 1006,3 hPa 0,0 mm 0,0 km/h (0 Bft) N 0 0 min 0 UV-I 0 W/m 0,0 km/h (0 Bft)
01.11.2010 05:50 7,2 C 91 % 1006,3 hPa 0,0 mm 0,0 km/h (0 Bft) O 90 0 min 0 UV-I 0 W/m 1,6 km/h (1 Bft)
01.11.2010 06:00 7,2 C 91 % 1006,4 hPa 0,0 mm 0,0 km/h (0 Bft) N 0 0 min 0 UV-I 0 W/m 0,0 km/h (0 Bft)
01.11.2010 06:10 7,2 C 91 % 1006,4 hPa 0,0 mm 0,0 km/h (0 Bft) N 0 0 min 0 UV-I 0 W/m 0,0 km/h (0 Bft)
01.11.2010 06:20 7,2 C 92 % 1006,4 hPa 0,0 mm 0,0 km/h (0 Bft) N 0 0 min 0 UV-I 0 W/m 0,0 km/h (0 Bft)
01.11.2010 06:30 7,2 C 91 % 1006,5 hPa 0,0 mm 0,0 km/h (0 Bft) O 90 0 min 0 UV-I 0 W/m 1,6 km/h (1 Bft)
01.11.2010 06:40 7,2 C 91 % 1006,6 hPa 0,0 mm 0,0 km/h (0 Bft) O 90 0 min 0 UV-I 0 W/m 1,6 km/h (1 Bft)
01.11.2010 06:50 7,2 C 91 % 1006,6 hPa 0,0 mm 0,0 km/h (0 Bft) O 90 0 min 0 UV-I 0 W/m 1,6 km/h (1 Bft)
01.11.2010 07:00 7,2 C 91 % 1006,7 hPa 0,0 mm 0,0 km/h (0 Bft) O 90 0 min 0 UV-I 0 W/m 1,6 km/h (1 Bft)
01.11.2010 07:10 7,1 C 91 % 1007,0 hPa 0,0 mm 0,0 km/h (0 Bft) N 0 0 min 0 UV-I 0 W/m 0,0 km/h (0 Bft)
01.11.2010 07:20 7,1 C 91 % 1007,1 hPa 0,0 mm 0,0 km/h (0 Bft) N 0 0 min 0 UV-I 0 W/m 0,0 km/h (0 Bft)
01.11.2010 07:30 7,1 C 91 % 1007,1 hPa 0,0 mm 0,0 km/h (0 Bft) N 0 0 min 0 UV-I 0 W/m 0,0 km/h (0 Bft)
01.11.2010 07:40 7,0 C 91 % 1007,1 hPa 0,0 mm 0,0 km/h (0 Bft) N 0 0 min 0 UV-I 0 W/m 0,0 km/h (0 Bft)
01.11.2010 07:50 6,9 C 91 % 1007,2 hPa 0,0 mm 0,0 km/h (0 Bft) N 0 0 min 0 UV-I 7 W/m 0,0 km/h (0 Bft)
01.11.2010 08:00 6,8 C 91 % 1007,3 hPa 0,0 mm 0,0 km/h (0 Bft) O 83 0 min 0 UV-I 13 W/m 0,0 km/h (0 Bft)
01.11.2010 08:10 6,8 C 91 % 1007,7 hPa 0,0 mm 0,0 km/h (0 Bft) O 90 0 min 0 UV-I 35 W/m 1,6 km/h (1 Bft)
01.11.2010 08:20 6,8 C 91 % 1007,8 hPa 0,0 mm 0,0 km/h (0 Bft) O 90 0 min 0 UV-I 46 W/m 1,6 km/h (1 Bft)
01.11.2010 08:30 6,8 C 91 % 1007,9 hPa 0,0 mm 0,0 km/h (0 Bft) O 90 0 min 0 UV-I 46 W/m 1,6 km/h (1 Bft)
01.11.2010 08:40 6,9 C 92 % 1007,9 hPa 0,0 mm 0,0 km/h (0 Bft) O 90 0 min 0 UV-I 65 W/m 3,2 km/h (1 Bft)
01.11.2010 08:50 7,1 C 92 % 1008,0 hPa 0,0 mm 0,0 km/h (0 Bft) O 83 10 min 0 UV-I 112 W/m 0,0 km/h (0 Bft)
01.11.2010 09:00 7,5 C 93 % 1008,2 hPa 0,0 mm 0,0 km/h (0 Bft) O 90 10 min 1 UV-I 190 W/m 1,6 km/h (1 Bft)
01.11.2010 09:10 8,1 C 92 % 1008,2 hPa 0,0 mm 0,2 km/h (0 Bft) O 83 10 min 0 UV-I 182 W/m 3,2 km/h (1 Bft)
01.11.2010 09:20 8,1 C 92 % 1008,3 hPa 0,0 mm 0,8 km/h (0 Bft) O 82 10 min 1 UV-I 151 W/m 4,8 km/h (1 Bft)
01.11.2010 09:30 8,2 C 92 % 1008,3 hPa 0,0 mm 0,4 km/h (0 Bft) O 82 10 min 1 UV-I 199 W/m 4,8 km/h (1 Bft)
01.11.2010 09:40 8,4 C 92 % 1008,4 hPa 0,0 mm 0,5 km/h (0 Bft) O-NO 68 10 min 1 UV-I 204 W/m 6,4 km/h (2 Bft)
01.11.2010 09:50 8,3 C 91 % 1008,5 hPa 0,0 mm 0,5 km/h (0 Bft) O-NO 67 0 min 1 UV-I 78 W/m 6,4 km/h (2 Bft)
01.11.2010 10:00 8,2 C 92 % 1008,7 hPa 0,0 mm 0,0 km/h (0 Bft) O-NO 67 0 min 1 UV-I 95 W/m 4,8 km/h (1 Bft)
01.11.2010 10:10 8,3 C 92 % 1008,8 hPa 0,0 mm 0,2 km/h (0 Bft) O-NO 67 0 min 1 UV-I 97 W/m 3,2 km/h (1 Bft)
01.11.2010 10:20 8,3 C 92 % 1008,9 hPa 0,0 mm 0,5 km/h (0 Bft) O-NO 67 0 min 1 UV-I 116 W/m 4,8 km/h (1 Bft)
01.11.2010 10:30 8,4 C 92 % 1009,2 hPa 0,0 mm 0,8 km/h (0 Bft) O-NO 67 0 min 1 UV-I 145 W/m 4,8 km/h (1 Bft)
01.11.2010 10:40 8,7 C 92 % 1009,2 hPa 0,0 mm 1,0 km/h (0 Bft) N 10 0 min 1 UV-I 148 W/m 9,7 km/h (2 Bft)
01.11.2010 10:50 8,7 C 91 % 1009,2 hPa 0,0 mm 1,5 km/h (1 Bft) N 360 0 min 1 UV-I 118 W/m 6,4 km/h (2 Bft)
01.11.2010 11:00 8,8 C 91 % 1009,2 hPa 0,0 mm 0,7 km/h (0 Bft) N 360 0 min 1 UV-I 147 W/m 4,8 km/h (1 Bft)
01.11.2010 11:10 9,2 C 91 % 1009,2 hPa 0,0 mm 0,3 km/h (0 Bft) N 360 10 min 1 UV-I 231 W/m 3,2 km/h (1 Bft)
01.11.2010 11:20 9,3 C 90 % 1009,2 hPa 0,0 mm 0,6 km/h (0 Bft) N 360 10 min 1 UV-I 217 W/m 3,2 km/h (1 Bft)
01.11.2010 11:30 9,6 C 89 % 1009,2 hPa 0,0 mm 0,7 km/h (0 Bft) N 360 10 min 1 UV-I 279 W/m 6,4 km/h (2 Bft)
01.11.2010 11:40 9,9 C 89 % 1009,3 hPa 0,0 mm 0,2 km/h (0 Bft) N 360 10 min 1 UV-I 255 W/m 3,2 km/h (1 Bft)
01.11.2010 11:50 9,9 C 88 % 1009,3 hPa 0,0 mm 0,0 km/h (0 Bft) N 360 10 min 1 UV-I 271 W/m 3,2 km/h (1 Bft)
01.11.2010 12:00 10,1 C 87 % 1009,3 hPa 0,0 mm 1,6 km/h (1 Bft) N 360 10 min 1 UV-I 243 W/m 6,4 km/h (2 Bft)
01.11.2010 12:10 10,1 C 87 % 1009,5 hPa 0,0 mm 1,6 km/h (1 Bft) N 360 0 min 1 UV-I 149 W/m 4,8 km/h (1 Bft)
01.11.2010 12:20 10,1 C 87 % 1009,5 hPa 0,0 mm 3,2 km/h (1 Bft) W-NW 292 0 min 1 UV-I 79 W/m 9,7 km/h (2 Bft)
01.11.2010 12:30 10,1 C 86 % 1009,5 hPa 0,0 mm 3,2 km/h (1 Bft) W 270 0 min 1 UV-I 128 W/m 11,3 km/h (2 Bft)
01.11.2010 12:40 10,0 C 87 % 1009,5 hPa 0,0 mm 3,2 km/h (1 Bft) W 270 0 min 1 UV-I 98 W/m 9,7 km/h (2 Bft)
01.11.2010 12:50 9,9 C 87 % 1009,5 hPa 0,0 mm 1,6 km/h (1 Bft) W 270 0 min 1 UV-I 132 W/m 6,4 km/h (2 Bft)
01.11.2010 13:00 9,9 C 87 % 1009,7 hPa 0,0 mm 1,6 km/h (1 Bft) W 270 0 min 1 UV-I 83 W/m 8,0 km/h (2 Bft)
01.11.2010 13:10 9,9 C 87 % 1009,5 hPa 0,0 mm 3,2 km/h (1 Bft) W 270 0 min 1 UV-I 86 W/m 8,0 km/h (2 Bft)
01.11.2010 13:20 9,9 C 87 % 1009,6 hPa 0,0 mm 1,6 km/h (1 Bft) W 270 0 min 0 UV-I 65 W/m 8,0 km/h (2 Bft)
01.11.2010 13:30 9,9 C 87 % 1009,4 hPa 0,0 mm 1,6 km/h (1 Bft) W 270 0 min 0 UV-I 65 W/m 6,4 km/h (2 Bft)
01.11.2010 13:40 9,8 C 87 % 1009,3 hPa 0,0 mm 3,2 km/h (1 Bft) W 270 0 min 1 UV-I 72 W/m 8,0 km/h (2 Bft)
01.11.2010 13:50 9,8 C 87 % 1009,4 hPa 0,0 mm 1,6 km/h (1 Bft) W 270 0 min 0 UV-I 62 W/m 6,4 km/h (2 Bft)
01.11.2010 14:00 9,7 C 87 % 1009,4 hPa 0,0 mm 1,6 km/h (1 Bft) W 270 0 min 1 UV-I 77 W/m 8,0 km/h (2 Bft)
01.11.2010 14:10 9,7 C 87 % 1009,4 hPa 0,0 mm 3,2 km/h (1 Bft) W 270 0 min 0 UV-I 65 W/m 8,0 km/h (2 Bft)
01.11.2010 14:20 9,6 C 87 % 1009,6 hPa 0,0 mm 1,6 km/h (1 Bft) W 270 0 min 0 UV-I 53 W/m 4,8 km/h (1 Bft)
01.11.2010 14:30 9,6 C 87 % 1009,8 hPa 0,0 mm 2,7 km/h (1 Bft) W 268 0 min 0 UV-I 32 W/m 6,4 km/h (2 Bft)
01.11.2010 14:40 9,6 C 87 % 1009,9 hPa 0,0 mm 1,0 km/h (0 Bft) W 268 0 min 0 UV-I 28 W/m 6,4 km/h (2 Bft)
01.11.2010 14:50 9,6 C 88 % 1010,0 hPa 0,0 mm 1,6 km/h (1 Bft) W 270 0 min 0 UV-I 26 W/m 6,4 km/h (2 Bft)
01.11.2010 15:00 9,5 C 88 % 1010,3 hPa 0,0 mm 0,0 km/h (0 Bft) W 270 0 min 0 UV-I 21 W/m 4,8 km/h (1 Bft)
01.11.2010 15:10 9,5 C 88 % 1010,4 hPa 0,0 mm 1,6 km/h (1 Bft) W 270 0 min 0 UV-I 23 W/m 9,7 km/h (2 Bft)
01.11.2010 15:20 9,4 C 88 % 1010,4 hPa 0,0 mm 1,6 km/h (1 Bft) W-NW 292 0 min 0 UV-I 12 W/m 8,0 km/h (2 Bft)
01.11.2010 15:30 9,3 C 88 % 1010,6 hPa 0,0 mm 0,0 km/h (0 Bft) W-NW 292 0 min 0 UV-I 12 W/m 8,0 km/h (2 Bft)
01.11.2010 15:40 9,3 C 88 % 1010,6 hPa 0,0 mm 1,6 km/h (1 Bft) W-NW 292 0 min 0 UV-I 12 W/m 4,8 km/h (1 Bft)
01.11.2010 15:50 9,2 C 88 % 1010,6 hPa 0,0 mm 0,0 km/h (0 Bft) W-NW 292 0 min 0 UV-I 12 W/m 4,8 km/h (1 Bft)
01.11.2010 16:00 9,1 C 88 % 1010,8 hPa 0,0 mm 0,8 km/h (0 Bft) W-NW 286 0 min 0 UV-I 9 W/m 6,4 km/h (2 Bft)
01.11.2010 16:10 9,1 C 88 % 1010,9 hPa 0,0 mm 0,0 km/h (0 Bft) W-NW 292 0 min 0 UV-I 9 W/m 4,8 km/h (1 Bft)
01.11.2010 16:20 9,0 C 88 % 1010,9 hPa 0,0 mm 0,0 km/h (0 Bft) W-NW 292 0 min 0 UV-I 5 W/m 4,8 km/h (1 Bft)
01.11.2010 16:30 8,9 C 88 % 1010,9 hPa 0,0 mm 0,0 km/h (0 Bft) W-NW 292 0 min 0 UV-I 5 W/m 3,2 km/h (1 Bft)
01.11.2010 16:40 8,9 C 88 % 1011,1 hPa 0,0 mm 1,6 km/h (1 Bft) W-NW 292 0 min 0 UV-I 0 W/m 6,4 km/h (2 Bft)
01.11.2010 16:50 8,8 C 88 % 1011,1 hPa 0,0 mm 0,0 km/h (0 Bft) W-NW 292 0 min 0 UV-I 0 W/m 6,4 km/h (2 Bft)
01.11.2010 17:00 8,8 C 88 % 1011,2 hPa 0,0 mm 0,0 km/h (0 Bft) W-NW 292 0 min 0 UV-I 0 W/m 3,2 km/h (1 Bft)
01.11.2010 17:10 8,7 C 88 % 1011,3 hPa 0,0 mm 0,0 km/h (0 Bft) W-NW 292 0 min 0 UV-I 0 W/m 3,2 km/h (1 Bft)
01.11.2010 17:20 8,7 C 92 % 1011,3 hPa 0,0 mm 0,0 km/h (0 Bft) W-NW 292 0 min 0 UV-I 0 W/m 3,2 km/h (1 Bft)
01.11.2010 17:30 8,6 C 88 % 1011,5 hPa 0,0 mm 0,0 km/h (0 Bft) W-NW 292 0 min 0 UV-I 0 W/m 4,8 km/h (1 Bft)
01.11.2010 17:40 8,6 C 89 % 1011,6 hPa 0,0 mm 0,0 km/h (0 Bft) W-NW 292 0 min 0 UV-I 0 W/m 6,4 km/h (2 Bft)
01.11.2010 17:50 8,6 C 89 % 1011,8 hPa 0,0 mm 1,6 km/h (1 Bft) W-NW 292 0 min 0 UV-I 0 W/m 8,0 km/h (2 Bft)
01.11.2010 18:00 8,5 C 89 % 1011,9 hPa 0,0 mm 0,0 km/h (0 Bft) W-NW 292 0 min 0 UV-I 0 W/m 6,4 km/h (2 Bft)
01.11.2010 18:10 8,5 C 89 % 1012,2 hPa 0,0 mm 1,6 km/h (1 Bft) W-NW 292 0 min 0 UV-I 0 W/m 8,0 km/h (2 Bft)
01.11.2010 18:20 8,4 C 89 % 1012,3 hPa 0,0 mm 1,6 km/h (1 Bft) W-NW 292 0 min 0 UV-I 0 W/m 8,0 km/h (2 Bft)
01.11.2010 18:30 8,4 C 89 % 1012,4 hPa 0,0 mm 1,6 km/h (1 Bft) W-NW 292 0 min 0 UV-I 0 W/m 9,7 km/h (2 Bft)
01.11.2010 18:40 8,3 C 89 % 1012,4 hPa 0,0 mm 1,6 km/h (1 Bft) W-NW 292 0 min 0 UV-I 0 W/m 6,4 km/h (2 Bft)
01.11.2010 18:50 8,2 C 89 % 1012,3 hPa 0,0 mm 1,6 km/h (1 Bft) W-NW 292 0 min 0 UV-I 0 W/m 8,0 km/h (2 Bft)
01.11.2010 19:00 8,1 C 90 % 1012,3 hPa 0,0 mm 0,0 km/h (0 Bft) W-NW 292 0 min 0 UV-I 0 W/m 8,0 km/h (2 Bft)
01.11.2010 19:10 8,1 C 90 % 1012,4 hPa 0,0 mm 1,6 km/h (1 Bft) W-NW 292 0 min 0 UV-I 0 W/m 8,0 km/h (2 Bft)
01.11.2010 19:20 8,0 C 90 % 1012,6 hPa 0,0 mm 1,6 km/h (1 Bft) W-NW 292 0 min 0 UV-I 0 W/m 8,0 km/h (2 Bft)
01.11.2010 19:30 7,9 C 90 % 1012,5 hPa 0,0 mm 3,2 km/h (1 Bft) W-NW 292 0 min 0 UV-I 0 W/m 11,3 km/h (2 Bft)
01.11.2010 19:40 7,9 C 90 % 1012,5 hPa 0,0 mm 1,6 km/h (1 Bft) W-NW 292 0 min 0 UV-I 0 W/m 8,0 km/h (2 Bft)
01.11.2010 19:50 7,8 C 90 % 1012,7 hPa 0,0 mm 0,0 km/h (0 Bft) W-NW 292 0 min 0 UV-I 0 W/m 4,8 km/h (1 Bft)
01.11.2010 20:00 7,8 C 90 % 1012,8 hPa 0,0 mm 0,0 km/h (0 Bft) W-NW 292 0 min 0 UV-I 0 W/m 6,4 km/h (2 Bft)
01.11.2010 20:10 7,8 C 91 % 1012,8 hPa 0,0 mm 1,6 km/h (1 Bft) W-NW 292 0 min 0 UV-I 0 W/m 6,4 km/h (2 Bft)
01.11.2010 20:20 7,7 C 91 % 1013,0 hPa 0,0 mm 0,0 km/h (0 Bft) W-NW 292 0 min 0 UV-I 0 W/m 6,4 km/h (2 Bft)
01.11.2010 20:30 7,7 C 91 % 1013,0 hPa 0,0 mm 0,6 km/h (0 Bft) W-NW 302 0 min 0 UV-I 0 W/m 6,4 km/h (2 Bft)
01.11.2010 20:40 7,7 C 91 % 1013,0 hPa 0,0 mm 0,6 km/h (0 Bft) W-NW 302 0 min 0 UV-I 0 W/m 6,4 km/h (2 Bft)
01.11.2010 20:50 7,6 C 91 % 1013,1 hPa 0,0 mm 1,0 km/h (0 Bft) W-NW 302 0 min 0 UV-I 0 W/m 4,8 km/h (1 Bft)
01.11.2010 21:00 7,6 C 91 % 1013,0 hPa 0,0 mm 0,2 km/h (0 Bft) W-NW 302 0 min 0 UV-I 0 W/m 3,2 km/h (1 Bft)
01.11.2010 21:10 7,6 C 91 % 1012,9 hPa 0,0 mm 0,5 km/h (0 Bft) W-NW 302 0 min 0 UV-I 0 W/m 3,2 km/h (1 Bft)
01.11.2010 21:20 7,6 C 91 % 1013,3 hPa 0,0 mm 0,2 km/h (0 Bft) W-NW 302 0 min 0 UV-I 0 W/m 4,8 km/h (1 Bft)
01.11.2010 21:30 7,6 C 91 % 1013,4 hPa 0,3 mm 0,3 km/h (0 Bft) W-NW 302 0 min 0 UV-I 0 W/m 4,8 km/h (1 Bft)
01.11.2010 21:40 7,5 C 91 % 1013,4 hPa 0,0 mm 0,2 km/h (0 Bft) W-NW 302 0 min 0 UV-I 0 W/m 4,8 km/h (1 Bft)
01.11.2010 21:50 7,5 C 91 % 1013,4 hPa 0,0 mm 0,0 km/h (0 Bft) W-NW 302 0 min 0 UV-I 0 W/m 1,6 km/h (1 Bft)
01.11.2010 22:00 7,5 C 91 % 1013,4 hPa 0,0 mm 0,0 km/h (0 Bft) W-NW 302 0 min 0 UV-I 0 W/m 1,6 km/h (1 Bft)
01.11.2010 22:10 7,5 C 91 % 1013,5 hPa 0,0 mm 0,4 km/h (0 Bft) W-NW 302 0 min 0 UV-I 0 W/m 3,2 km/h (1 Bft)
01.11.2010 22:20 7,5 C 91 % 1013,5 hPa 0,0 mm 0,0 km/h (0 Bft) W-NW 302 0 min 0 UV-I 0 W/m 1,6 km/h (1 Bft)
01.11.2010 22:30 7,4 C 91 % 1013,5 hPa 0,0 mm 0,0 km/h (0 Bft) W-NW 302 0 min 0 UV-I 0 W/m 1,6 km/h (1 Bft)
01.11.2010 22:40 7,4 C 91 % 1013,6 hPa 0,0 mm 0,0 km/h (0 Bft) W-NW 302 0 min 0 UV-I 0 W/m 1,6 km/h (1 Bft)
01.11.2010 22:50 7,4 C 91 % 1013,6 hPa 0,0 mm 0,1 km/h (0 Bft) W-NW 302 0 min 0 UV-I 0 W/m 3,2 km/h (1 Bft)
01.11.2010 23:00 7,4 C 91 % 1013,6 hPa 0,0 mm 0,2 km/h (0 Bft) W-NW 302 0 min 0 UV-I 0 W/m 4,8 km/h (1 Bft)
01.11.2010 23:10 7,4 C 91 % 1013,5 hPa 0,0 mm 0,1 km/h (0 Bft) W-NW 302 0 min 0 UV-I 0 W/m 3,2 km/h (1 Bft)
01.11.2010 23:20 7,4 C 91 % 1013,5 hPa 0,0 mm 0,1 km/h (0 Bft) W-NW 302 0 min 0 UV-I 0 W/m 3,2 km/h (1 Bft)
01.11.2010 23:30 7,4 C 91 % 1013,5 hPa 0,0 mm 0,0 km/h (0 Bft) W-NW 302 0 min 0 UV-I 0 W/m 1,6 km/h (1 Bft)
01.11.2010 23:40 7,3 C 91 % 1013,4 hPa 0,0 mm 0,0 km/h (0 Bft) W-NW 302 0 min 0 UV-I 0 W/m 1,6 km/h (1 Bft)
01.11.2010 23:50 7,3 C 91 % 1013,4 hPa 0,0 mm 0,0 km/h (0 Bft) W-NW 302 0 min 0 UV-I 0 W/m 1,6 km/h (1 Bft)
_ Min-Zeit 00:00 12:30 01:10 - 00:00 - - - - - 00:00
Minimum _ 5,4 C 86 % 1004,5 hPa - 0,0 km/h (0 Bft) - - - - - 0,0 km/h (0 Bft)
_ Max-Zeit 11:50 09:00 22:40 21:30 12:20 - - 08:50 11:50 11:30 12:30
Maximum _ 10,3 C 93 % 1013,6 hPa 0,3 mm 3,2 km/h
W-NW (1 Bft)
- - 10 min 1 UV-I 279 W/m 11,3 km/h
W (2 Bft)
Durchschnitt _ 7,9 C 90 % 1009,1 hPa #0,3 mm 0,5 km/h (0 Bft) W - #2:00 h 1 UV-I 96 W/m 3,8 km/h (1 Bft)